• In Schweiz
  • Länderverzeichnis
  • Für 7 Tage
  • Wassertemperatur
  • Satellitenkarten
  • Wetterkarte
  • Widgets
  • user-avatar
    Anmelden

    Stündliche Wetter Sredniy Put

    Heute, 15 Oktober, Montag

    Zeit Temperatur Niederschläge Wind Luftdruck Luftfeuchtigkeit
    00:00 +11°C° 0 mm 3 m/S 765 mmHg 91%
    01:00 +11°C° 0 mm 3 m/S 765 mmHg 91%
    02:00 +10°C° 0 mm 3 m/S 765 mmHg 92%
    03:00 +10°C° 0 mm 3 m/S 765 mmHg 91%
    04:00 +10°C° 0 mm 3 m/S 765 mmHg 90%
    05:00 +10°C° 0 mm 3 m/S 765 mmHg 88%
    06:00 +10°C° 0 mm 3 m/S 765 mmHg 86%
    07:00 +10°C° 0 mm 3 m/S 764 mmHg 83%
    08:00 +10°C° 0 mm 3 m/S 764 mmHg 80%
    09:00 +11°C° 0 mm 3 m/S 764 mmHg 74%
    10:00 +12°C° 0 mm 3 m/S 764 mmHg 68%
    11:00 +14°C° 0 mm 4 m/S 764 mmHg 62%
    12:00 +14°C° 0 mm 4 m/S 764 mmHg 60%
    13:00 +15°C° 0 mm 4 m/S 764 mmHg 58%
    14:00 +17°C° 0 mm 4 m/S 764 mmHg 57%
    15:00 +14°C° 0 mm 3 m/S 764 mmHg 61%
    16:00 +13°C° 0 mm 3 m/S 764 mmHg 65%
    17:00 +12°C° 0 mm 3 m/S 764 mmHg 70%
    18:00 +12°C° 0 mm 3 m/S 764 mmHg 72%
    19:00 +11°C° 0 mm 3 m/S 763 mmHg 73%
    20:00 +10°C° 0 mm 3 m/S 763 mmHg 75%
    21:00 +10°C° 0 mm 3 m/S 763 mmHg 77%
    22:00 +9°C° 0 mm 3 m/S 763 mmHg 78%
    23:00 +9°C° 0 mm 3 m/S 763 mmHg 79%

    Morgen, 16 Oktober, Dienstag

    Zeit Temperatur Niederschläge Wind Luftdruck Luftfeuchtigkeit
    00:00 +9°C° 0 mm 3 m/S 763 mmHg 80%
    01:00 +9°C° 0 mm 3 m/S 763 mmHg 81%
    02:00 +9°C° 0 mm 3 m/S 763 mmHg 82%
    03:00 +8°C° 0 mm 3 m/S 763 mmHg 82%
    04:00 +8°C° 0 mm 3 m/S 763 mmHg 82%
    05:00 +8°C° 0 mm 3 m/S 762 mmHg 82%
    06:00 +8°C° 0 mm 3 m/S 762 mmHg 81%
    07:00 +9°C° 0 mm 3 m/S 762 mmHg 80%
    08:00 +9°C° 0 mm 3 m/S 762 mmHg 79%
    09:00 +10°C° 0 mm 3 m/S 763 mmHg 75%
    10:00 +11°C° 0 mm 3 m/S 763 mmHg 70%
    11:00 +13°C° 0 mm 3 m/S 763 mmHg 66%
    12:00 +14°C° 0 mm 3 m/S 763 mmHg 65%
    13:00 +14°C° 0 mm 3 m/S 763 mmHg 63%
    14:00 +16°C° 0 mm 3 m/S 763 mmHg 62%
    15:00 +14°C° 0 mm 3 m/S 763 mmHg 68%
    16:00 +14°C° 0 mm 2 m/S 763 mmHg 74%
    17:00 +13°C° 0 mm 2 m/S 763 mmHg 80%
    18:00 +12°C° 0 mm 2 m/S 763 mmHg 82%
    19:00 +12°C° 0 mm 2 m/S 763 mmHg 85%
    20:00 +11°C° 0 mm 1 m/S 764 mmHg 87%
    21:00 +11°C° 0 mm 1 m/S 764 mmHg 88%
    22:00 +11°C° 0 mm 1 m/S 764 mmHg 89%
    23:00 +10°C° 0 mm 1 m/S 764 mmHg 90%

    übermorgen, 17 Oktober, Mittwoch

    Zeit Temperatur Niederschläge Wind Luftdruck Luftfeuchtigkeit
    00:00 +10°C° 0 mm 1 m/S 764 mmHg 91%
    01:00 +10°C° 0 mm 1 m/S 764 mmHg 91%
    02:00 +9°C° 0 mm 1 m/S 764 mmHg 92%
    03:00 +9°C° 0 mm 1 m/S 764 mmHg 92%
    04:00 +9°C° 0 mm 1 m/S 764 mmHg 92%
    05:00 +9°C° 0 mm 1 m/S 764 mmHg 92%
    06:00 +9°C° 0 mm 1 m/S 764 mmHg 92%
    07:00 +9°C° 0 mm 1 m/S 764 mmHg 91%
    08:00 +9°C° 0 mm 1 m/S 765 mmHg 90%
    09:00 +11°C° 0 mm 1 m/S 765 mmHg 84%
    10:00 +12°C° 0 mm 1 m/S 765 mmHg 77%
    11:00 +14°C° 0 mm 1 m/S 765 mmHg 71%
    12:00 +14°C° 0 mm 1 m/S 765 mmHg 69%
    13:00 +15°C° 0 mm 1 m/S 765 mmHg 67%
    14:00 +16°C° 0 mm 1 m/S 764 mmHg 65%
    15:00 +14°C° 0 mm 1 m/S 764 mmHg 72%
    16:00 +13°C° 0 mm 1 m/S 764 mmHg 78%
    17:00 +12°C° 0 mm 1 m/S 764 mmHg 84%
    18:00 +11°C° 0 mm 1 m/S 764 mmHg 86%
    19:00 +11°C° 0 mm 1 m/S 764 mmHg 89%
    20:00 +9°C° 0 mm 2 m/S 764 mmHg 91%
    21:00 +9°C° 0 mm 2 m/S 764 mmHg 91%
    22:00 +9°C° 0 mm 2 m/S 764 mmHg 92%
    23:00 +8°C° 0 mm 2 m/S 764 mmHg 92%

    18 Oktober, Donnerstag

    Zeit Temperatur Niederschläge Wind Luftdruck Luftfeuchtigkeit
    00:00 +8°C° 0 mm 2 m/S 764 mmHg 93%
    01:00 +8°C° 0 mm 2 m/S 764 mmHg 93%
    02:00 +8°C° 0 mm 2 m/S 764 mmHg 93%
    03:00 +7°C° 0 mm 2 m/S 764 mmHg 93%
    04:00 +7°C° 0 mm 2 m/S 763 mmHg 94%
    05:00 +7°C° 0 mm 2 m/S 763 mmHg 94%
    06:00 +7°C° 0 mm 2 m/S 763 mmHg 93%
    07:00 +7°C° 0 mm 2 m/S 763 mmHg 93%
    08:00 +7°C° 0 mm 2 m/S 763 mmHg 93%
    09:00 +9°C° 0 mm 2 m/S 763 mmHg 86%
    10:00 +10°C° 0 mm 2 m/S 763 mmHg 80%
    11:00 +13°C° 0 mm 2 m/S 763 mmHg 74%
    12:00 +14°C° 0 mm 2 m/S 762 mmHg 72%
    13:00 +14°C° 0 mm 2 m/S 762 mmHg 69%
    14:00 +15°C° 0 mm 2 m/S 762 mmHg 67%
    15:00 +14°C° 0 mm 2 m/S 762 mmHg 73%
    16:00 +13°C° 0 mm 2 m/S 762 mmHg 78%
    17:00 +10°C° 0 mm 2 m/S 761 mmHg 84%
    18:00 +10°C° 0 mm 2 m/S 761 mmHg 86%
    19:00 +10°C° 0 mm 2 m/S 761 mmHg 88%
    20:00 +9°C° 0 mm 2 m/S 761 mmHg 90%
    21:00 +9°C° 0 mm 2 m/S 761 mmHg 90%
    22:00 +9°C° 0 mm 2 m/S 761 mmHg 91%
    23:00 +8°C° 0 mm 2 m/S 761 mmHg 92%

    19 Oktober, Freitag

    Zeit Temperatur Niederschläge Wind Luftdruck Luftfeuchtigkeit
    00:00 +8°C° 0 mm 2 m/S 761 mmHg 93%
    01:00 +9°C° 0 mm 1 m/S 761 mmHg 93%
    02:00 +9°C° 0 mm 1 m/S 761 mmHg 93%
    03:00 +9°C° 0 mm 1 m/S 761 mmHg 94%
    04:00 +9°C° 0 mm 1 m/S 761 mmHg 94%
    05:00 +8°C° 0 mm 1 m/S 760 mmHg 94%
    06:00 +8°C° 0 mm 2 m/S 761 mmHg 94%
    07:00 +8°C° 0 mm 2 m/S 761 mmHg 94%
    08:00 +8°C° 0 mm 2 m/S 761 mmHg 94%
    09:00 +9°C° 0 mm 2 m/S 761 mmHg 89%
    10:00 +10°C° 0 mm 2 m/S 761 mmHg 84%
    11:00 +11°C° 0 mm 3 m/S 762 mmHg 79%
    12:00 +11°C° 0 mm 3 m/S 762 mmHg 75%
    13:00 +11°C° 0 mm 3 m/S 762 mmHg 71%
    14:00 +11°C° 0 mm 3 m/S 762 mmHg 68%
    15:00 +10°C° 0 mm 3 m/S 762 mmHg 70%
    16:00 +9°C° 0 mm 3 m/S 762 mmHg 73%
    17:00 +8°C° 0 mm 2 m/S 762 mmHg 75%
    18:00 +7°C° 0 mm 2 m/S 762 mmHg 77%
    19:00 +6°C° 0 mm 2 m/S 762 mmHg 78%
    20:00 +6°C° 0 mm 2 m/S 762 mmHg 80%
    21:00 +5°C° 0 mm 2 m/S 762 mmHg 81%
    22:00 +6°C° 0 mm 1 m/S 762 mmHg 83%
    23:00 +6°C° 0 mm 1 m/S 763 mmHg 84%

    20 Oktober, Samstag

    Zeit Temperatur Niederschläge Wind Luftdruck Luftfeuchtigkeit
    00:00 +5°C° 0 mm 1 m/S 763 mmHg 86%
    01:00 +5°C° 0 mm 1 m/S 762 mmHg 87%
    02:00 +5°C° 0 mm 1 m/S 762 mmHg 89%
    03:00 +5°C° 0 mm 1 m/S 762 mmHg 90%
    04:00 +5°C° 0 mm 1 m/S 762 mmHg 90%
    05:00 +4°C° 0 mm 1 m/S 762 mmHg 91%
    06:00 +5°C° 0 mm 1 m/S 762 mmHg 91%
    07:00 +5°C° 0 mm 1 m/S 762 mmHg 90%
    08:00 +5°C° 0 mm 1 m/S 762 mmHg 89%
    09:00 +6°C° 0 mm 1 m/S 762 mmHg 83%
    10:00 +8°C° 0 mm 1 m/S 762 mmHg 76%
    11:00 +9°C° 0 mm 1 m/S 762 mmHg 69%
    12:00 +10°C° 0 mm 1 m/S 761 mmHg 67%
    13:00 +10°C° 0 mm 1 m/S 761 mmHg 65%
    14:00 +9°C° 0 mm 2 m/S 761 mmHg 63%
    15:00 +8°C° 0 mm 2 m/S 760 mmHg 67%
    16:00 +7°C° 0 mm 2 m/S 760 mmHg 72%
    17:00 +6°C° 0 mm 2 m/S 760 mmHg 77%
    18:00 +6°C° 0 mm 2 m/S 760 mmHg 80%
    19:00 +5°C° 0 mm 2 m/S 760 mmHg 82%
    20:00 +5°C° 0 mm 2 m/S 760 mmHg 85%
    21:00 +5°C° 0 mm 2 m/S 759 mmHg 87%
    22:00 +5°C° 0 mm 2 m/S 759 mmHg 90%
    23:00 +3°C° 0 mm 3 m/S 759 mmHg 92%
    Mehr zeigen